OneWeb SL0229

operational
NORAD ID: 48779 Int'l Des: 2021-045 Owner: ONEWEBN Country: UK Constellation: oneweb
LEOCIRCULARPOLARONEWEB_TYPE

OneWeb SL0229について

説明を読み込み中...

リアルタイム位置

3D地球を読み込み中...

次回通過

高度履歴

Altitude vs Time

uPlot chart will show altitude changes over time

軌道要素

1 48779U 21045N 25350.90445109 .00000038 00000-0 67515-4 0 9993
2 48779 87.8993 295.5570 0002004 77.4159 282.7195 13.15548977220449
Epoch: Dec 16, 2025 • Age: 13 hours

現在のステータス

高度 1213.9 km
速度 7.25 km/s
衛星直下点 80.90°N, 148.83°W
打ち上げ日 May 28, 2021
運用期間 4.5 years
タイプ internet

技術仕様

分類 Payload
質量 148.00 kg
乾燥質量 140.00 kg
総質量 148.00 kg
長さ 1.30 m
直径 1.00 m
スパン 5.00 m
形状 Trapezoid+2 pan
製造者 ONEWUS
バスタイプ ARROW
フェーズステータス In Orbit
所有者/国 ONEWEBN/UK

大規模コンステレーション

Loading constellations...